Find Starlink 36684

NORAD ID: 68718 Int'l Des: 2026-081 Owner: SPXS Country: US Constellation: starlink operational
LEOCIRCULAR

現在のビュー

3D地球を読み込み中...

Starlink 36684について

説明を読み込み中...

次回通過

Passes for default location (London). Set your location on the main map for personalized predictions.

高度履歴

Loading altitude history...

軌道要素

1 68718U 26081V 26150.90480630 .00028194 00000-0 84143-3 0 9998
2 68718 53.1588 11.9693 0000666 88.3675 271.7404 15.34437789 7335
Epoch: May 30, 2026 • Age: 13 hours

現在のステータス

高度 468.0 km
速度 7.64 km/s
衛星直下点 50.59°N, 75.25°E
打ち上げ日 Apr 14, 2026
運用期間 0.1 years
タイプ internet

技術仕様

分類 Payload
質量 575.00 kg
乾燥質量 530.00 kg
総質量 575.00 kg
長さ 0.30 m
直径 4.10 m
スパン 29.00 m
形状 Box + pan
製造者 SPXS
バスタイプ Starlink V2MO
フェーズステータス In Orbit
所有者/国 SPXS/US

Most Searched